STARLINK-34537

Last updated on Fri Aug 08 2025 00:02:05 GMT+0000 (Coordinated Universal Time)

1 64778U 25147Z 25218.86884765 .00356117 00000+0 19303-2 0 9991 2 64778 53.1545 160.3448 0001697 129.6932 230.4239 15.78516034 5905

Satellite not in orbit